Location: Kelshall
(52.0000°N, 0.0500°W)
Time: 01:46:19
(UTC+00:00)

ATLAS 3B R/B - Pass Details

Date: 18 September 2020
Orbit: 1016 x 1179 km, 63.8° (Epoch: 28 October)

Event Time Altitude Azimuth Distance (km) Brightness Sun altitude
Rises 21:19:50 0° 314° (NW) 3,819 6.9 -27.5°
Reaches altitude 10° 21:22:25 10° 314° (NW) 2,881 5.9 -27.8°
Maximum altitude 21:29:16 86° 227° (SW) 1,094 2.6 -28.5°
Enters shadow 21:30:03 73° 151° (SSE) 1,139 2.5 -28.6°
